GFSSW_925_spd_003.txt.gz
Wind_Speed
16 17 18 18 17 16 17 16 17 17 16 17 18 17 17 19 18 12 18 13 18 11 16 19 18 18 20 17 20 13 13 15 18 17 10 12 12 3 4 10 6 5 7 5 6
16 17 17 19 19 19 17 16 17 18 17 18 19 19 18 20 19 26 28 21 21 24 20 24 20 19 16 19 18 15 14 20 15 14 12 16 17 17 6 10 8 9 7 5 8
17 18 19 19 18 19 19 19 19 18 19 18 18 18 18 18 17 19 5 25 26 28 29 26 22 19 21 20 20 20 18 18 17 15 14 15 17 9 8 10 8 3 7 14 13
18 19 19 19 19 20 21 20 21 20 19 18 18 18 18 9 7 6 2 8 23 24 28 30 23 23 22 24 22 21 19 19 16 19 16 13 10 9 7 10 4 5 4 8 12
18 19 20 20 19 20 20 21 22 21 20 19 17 15 9 11 16 13 6 9 11 23 31 26 26 25 26 25 22 18 17 21 22 17 16 13 9 11 11 6 4 5 7 10 12
18 19 19 19 19 19 20 20 21 21 20 19 18 15 7 20 15 20 16 11 13 20 27 27 22 24 24 24 20 22 24 19 17 17 15 12 16 6 12 1 4 9 11 10 9
19 18 19 20 21 22 22 21 22 21 19 18 16 10 15 24 11 10 14 21 23 21 17 27 30 22 21 24 21 20 19 20 18 18 16 12 18 16 12 9 10 9 10 13 13
20 19 18 18 21 20 22 24 25 21 20 16 13 11 14 18 26 33 20 13 11 18 28 21 28 28 24 18 21 19 23 19 21 23 15 10 20 16 14 12 12 13 13 11 12
19 18 18 19 18 22 24 27 25 21 17 11 8 14 20 9 32 33 28 29 26 17 22 21 18 25 23 19 20 20 18 22 20 12 14 17 20 19 7 11 12 13 12 11 11
19 20 20 20 21 23 25 27 18 12 4 8 16 6 19 19 22 21 28 32 19 20 16 18 14 19 19 19 21 21 23 20 17 14 13 16 19 19 16 16 16 16 12 11 13
18 17 19 20 20 20 21 16 5 7 23 15 15 17 5 13 8 11 20 22 22 21 24 24 18 24 32 29 24 22 20 17 13 7 14 10 17 20 20 15 17 17 12 12 14
17 18 18 19 18 19 18 11 7 6 10 28 28 25 28 7 8 18 19 19 24 25 26 21 26 27 27 27 27 24 20 19 15 14 9 13 19 20 20 21 20 18 14 11 13
19 17 16 17 19 19 21 22 7 7 9 21 28 27 27 24 22 18 26 24 25 28 30 29 26 27 26 26 25 23 20 16 17 15 10 13 23 22 15 11 14 12 7 10 14
18 17 14 14 13 16 19 15 11 5 7 19 19 26 28 25 29 28 29 26 22 30 28 27 27 26 27 26 23 21 18 18 15 14 13 14 16 16 16 10 11 13 13 11 13
19 17 13 10 19 12 8 3 6 7 8 8 29 10 21 32 9 30 34 25 29 22 26 31 26 27 25 28 23 18 17 15 12 15 17 18 12 16 11 10 7 10 14 13 15
19 16 13 14 18 20 11 5 8 9 15 9 13 17 21 33 34 11 34 26 23 26 27 30 28 24 23 20 18 20 14 14 9 11 15 18 15 15 9 2 5 5 4 13 15
20 17 15 15 12 12 15 8 8 15 16 15 19 19 26 23 33 26 32 30 26 27 29 27 31 26 19 22 22 15 13 10 12 13 13 15 9 10 14 6 7 4 7 10 14
18 18 18 19 18 12 11 12 17 23 33 6 21 21 28 24 32 30 30 28 32 29 17 23 27 29 21 26 22 22 19 12 13 13 13 10 7 6 1 2 3 4 3 12 14
15 15 19 19 19 12 7 17 23 24 22 33 15 19 27 29 19 32 31 33 34 32 26 24 26 25 25 23 24 17 20 20 18 17 12 8 8 8 6 11 9 5 4 11 15
8 8 18 19 20 14 5 24 28 28 27 22 34 21 23 29 25 35 30 33 34 34 28 18 17 24 28 19 27 22 20 18 12 16 16 13 10 4 10 2 7 6 8 13 17
5 3 10 21 17 5 6 20 29 30 31 19 20 20 26 25 30 27 31 20 35 35 30 28 17 22 25 23 26 20 21 14 14 12 11 10 8 8 5 5 3 9 10 16 17
6 3 8 25 6 3 12 26 27 32 30 15 20 24 26 26 26 30 33 32 29 29 36 30 12 17 27 25 24 26 26 22 10 17 12 13 2 8 7 7 2 11 13 16 17
2 5 1 15 6 13 19 27 27 28 28 26 18 19 24 24 21 29 28 29 19 31 34 26 14 17 22 20 23 25 23 20 19 14 15 12 12 8 11 6 5 8 14 16 17
1 3 3 4 2 7 14 22 24 19 28 21 27 17 22 24 24 18 29 25 19 24 24 22 20 25 19 25 21 24 25 25 22 16 16 16 14 13 13 13 10 7 14 17 17
3 4 5 4 10 15 15 15 19 24 20 22 22 25 23 21 20 24 23 26 19 18 20 24 24 25 24 20 24 22 22 27 27 23 21 18 18 14 12 13 12 12 14 16 19
1 4 3 11 11 6 10 13 18 18 10 18 22 23 22 18 19 19 18 18 23 22 23 21 22 22 25 24 24 26 25 25 26 25 23 22 18 14 12 10 11 15 13 16 19
3 2 3 4 6 7 7 7 12 15 19 18 22 22 23 22 20 28 21 21 20 23 23 22 18 21 21 21 24 23 27 27 24 22 22 21 20 15 10 14 8 9 11 15 18

GFSSW_925_spd_006.txt.gz
Wind_Speed
15 16 17 17 17 17 17 17 18 18 17 17 16 16 17 20 24 12 16 16 20 23 13 13 19 22 23 20 21 17 13 16 21 21 14 14 14 10 8 7 12 5 5 6 10
17 17 17 18 19 19 19 19 20 19 19 19 17 17 18 21 22 24 28 27 21 20 17 23 20 22 17 20 17 17 14 23 22 20 14 17 14 17 16 12 11 12 11 12 13
19 19 19 20 20 20 20 21 21 20 20 20 19 18 17 19 12 11 9 26 35 31 25 26 25 20 23 20 22 21 21 22 24 20 16 19 18 17 15 10 8 7 0 15 13
19 21 22 23 22 21 21 21 21 22 21 21 19 18 17 7 7 6 10 3 25 29 24 28 24 25 25 24 23 24 26 24 25 18 19 19 22 18 11 10 9 0 1 13 15
20 21 22 23 24 24 24 24 23 22 21 20 18 15 9 11 15 19 14 5 15 21 29 24 27 26 27 25 24 27 26 25 19 14 22 24 22 18 12 10 6 4 7 7 6
21 21 23 23 23 25 25 24 24 24 22 19 17 13 8 20 22 24 23 12 12 22 27 26 24 24 27 25 27 24 25 23 18 25 23 22 18 15 20 10 4 7 8 11 11
21 22 22 23 24 24 25 26 27 26 25 20 17 9 14 25 16 19 22 29 20 24 20 27 29 26 23 28 26 24 26 23 23 18 22 20 19 16 19 12 16 12 13 11 7
23 23 21 21 22 25 27 29 30 28 27 23 16 9 12 16 31 39 34 28 25 29 25 18 23 24 26 23 24 24 26 22 23 22 25 22 19 16 16 15 16 14 11 13 13
21 22 22 22 22 23 26 31 33 27 24 18 8 11 16 14 28 40 32 31 24 22 18 24 24 20 20 21 21 21 18 25 24 23 24 21 18 16 17 16 14 11 11 10 9
22 21 21 21 23 25 26 29 28 27 15 10 18 11 19 21 28 30 34 33 22 18 19 20 17 19 18 17 21 20 23 22 23 23 22 14 17 15 18 19 8 18 14 11 9
20 21 20 21 21 23 23 17 6 7 15 15 15 19 12 15 24 28 24 29 23 21 21 20 15 23 25 26 26 25 23 24 23 17 8 16 22 16 12 14 18 15 9 7 10
22 21 20 20 22 22 18 10 19 16 12 27 32 28 33 25 12 15 19 22 26 27 22 21 26 27 27 24 28 27 26 23 20 19 15 15 14 13 14 17 19 17 13 9 13
24 22 21 20 22 22 21 29 28 27 11 23 29 34 31 28 26 21 25 23 24 27 27 27 27 27 28 25 26 26 25 21 23 17 16 15 14 13 21 19 15 12 5 4 14
22 21 20 17 16 13 21 18 19 11 7 15 24 26 34 29 35 30 27 24 22 28 30 30 26 28 29 28 26 25 25 25 18 15 13 14 13 13 15 17 12 5 8 9 15
22 19 18 12 19 15 18 16 6 5 7 8 33 11 21 33 10 33 39 28 27 26 22 32 29 28 28 29 27 23 23 20 14 15 15 15 12 14 15 18 7 1 6 13 16
22 19 17 15 21 19 18 16 6 7 14 9 11 26 25 31 35 9 35 31 26 25 28 29 24 30 31 26 26 25 22 14 12 12 12 15 15 14 16 4 4 3 1 13 15
22 19 18 16 18 14 11 10 7 14 10 12 21 25 25 27 32 32 31 31 26 26 28 26 32 30 29 29 23 23 14 11 11 11 12 18 18 15 8 9 2 3 10 13 14
19 16 18 21 19 17 8 7 16 20 35 10 19 23 26 24 29 34 26 27 30 31 14 23 22 33 27 30 26 23 17 13 15 11 16 20 17 5 5 5 2 2 7 13 13
16 16 17 20 19 17 4 12 22 28 17 28 29 29 24 25 22 30 34 30 32 32 25 22 29 23 32 24 23 21 22 18 18 17 12 11 11 10 11 8 9 9 10 12 11
11 8 17 17 22 9 6 17 23 29 36 34 29 20 20 19 27 31 31 30 31 33 25 24 18 28 29 25 23 23 19 16 12 16 15 12 15 5 11 6 10 10 7 12 12
7 2 15 20 16 4 7 19 26 29 32 29 28 27 26 25 25 29 32 30 32 32 31 26 16 20 24 27 22 18 20 18 14 14 12 10 10 9 10 12 11 8 11 11 13
3 3 5 23 6 3 9 19 20 27 30 28 24 25 26 25 23 17 27 32 28 30 34 32 11 16 26 26 26 23 23 18 11 16 11 11 5 10 9 9 11 12 13 13 15
3 5 1 3 5 8 15 21 25 26 26 26 23 23 25 25 12 15 22 28 34 32 30 26 20 13 19 22 24 23 23 21 14 9 14 12 11 10 11 11 7 14 16 14 14
4 3 3 5 3 10 16 21 20 19 27 22 20 24 22 22 20 17 22 16 28 30 33 22 19 22 16 18 22 26 24 23 20 13 14 15 16 15 12 9 10 13 17 16 15
3 4 5 4 7 8 12 20 22 19 24 16 22 20 20 21 23 18 16 19 25 23 25 22 27 21 24 24 27 26 26 26 24 19 18 17 17 11 13 10 11 13 16 17 16
3 4 5 9 11 13 13 12 20 20 17 18 16 19 18 21 20 19 22 20 13 19 17 20 23 22 24 27 25 28 27 25 25 23 22 21 18 13 11 19 14 16 14 15 17
6 5 5 7 9 9 9 9 7 14 16 14 16 17 16 19 19 20 21 21 25 22 23 16 20 22 21 23 25 24 27 26 20 21 22 20 15 14 12 10 8 16 14 14 16

GFSSW_925_spd_009.txt.gz
Wind_Speed
16 17 16 16 17 18 18 19 19 19 19 18 19 19 19 20 23 18 13 21 19 25 12 11 15 18 19 9 13 13 5 12 17 16 17 10 7 7 6 4 3 8 7 12 29
19 18 20 21 21 21 21 21 21 20 20 20 21 20 19 20 24 19 30 28 22 21 23 17 14 15 9 9 10 11 8 21 16 18 18 10 8 8 7 9 5 5 9 23 29
21 21 21 22 23 23 23 23 22 22 21 21 21 20 17 18 5 9 3 13 35 28 26 24 20 14 15 16 18 17 17 18 17 22 20 14 9 8 11 7 3 10 11 11 10
20 21 21 22 23 23 23 23 24 23 24 23 21 21 16 8 6 5 6 14 8 31 25 21 15 13 18 20 20 18 21 22 23 22 19 10 7 9 14 9 5 8 15 9 9
20 20 21 22 22 23 24 23 22 22 23 22 22 18 8 7 12 23 21 8 4 21 27 16 14 17 19 21 17 22 23 23 23 22 10 7 9 15 19 7 1 10 11 12 11
19 19 20 22 22 23 24 25 25 24 23 21 20 16 5 16 25 31 30 24 14 20 23 19 12 19 12 18 22 21 19 21 23 20 8 10 17 17 12 6 7 8 9 10 11
19 20 22 22 21 21 24 25 27 28 26 22 17 11 11 22 15 16 18 22 20 24 15 27 27 15 8 15 15 17 22 24 22 14 15 14 18 16 10 8 10 10 10 10 10
20 21 21 21 22 23 25 27 30 30 28 22 15 8 10 13 19 29 39 32 28 27 30 28 27 18 16 9 15 17 17 18 12 11 20 13 21 15 11 9 10 11 10 9 11
23 23 22 21 21 23 26 29 33 31 26 18 9 8 10 14 22 45 34 26 23 26 32 26 19 12 8 17 13 11 15 16 17 18 22 12 19 16 11 9 9 11 8 9 10
23 24 24 23 24 25 27 33 33 23 15 9 14 6 10 11 16 25 33 29 12 12 15 17 12 17 14 10 17 13 11 14 18 23 18 14 14 10 11 11 12 9 10 9 9
23 24 25 25 23 24 28 17 2 3 8 11 15 13 12 22 11 16 20 21 18 11 14 12 9 19 24 22 14 14 14 20 23 21 21 4 22 13 10 8 8 10 9 10 10
24 23 23 24 24 23 22 4 13 8 11 19 27 25 32 30 14 17 24 16 15 20 16 12 26 21 19 16 19 18 19 23 23 20 5 18 22 16 9 7 9 11 10 6 11
25 23 22 23 24 23 13 17 26 24 7 14 24 28 21 19 26 24 16 20 19 21 21 26 13 19 20 18 18 21 20 21 19 21 17 5 6 6 5 5 7 10 8 16 21
23 21 20 20 14 13 17 19 27 21 5 10 12 13 20 14 20 28 32 16 14 25 23 21 18 19 23 23 22 21 19 22 22 17 8 1 6 4 6 10 10 12 10 16 18
24 21 18 13 15 10 16 30 34 10 6 8 14 14 18 27 13 19 37 21 21 21 20 21 25 25 24 24 24 22 16 20 22 16 7 5 2 5 4 9 14 5 11 16 18
24 21 16 11 18 22 21 30 16 3 11 8 6 16 16 27 17 3 29 25 16 19 24 21 14 21 29 24 25 24 16 17 16 9 3 6 6 9 6 7 6 4 7 15 15
24 18 16 12 10 16 18 10 3 8 10 6 5 14 20 17 25 17 23 26 24 21 24 22 27 24 21 22 23 20 14 9 3 1 6 5 4 10 10 8 7 9 13 13 15
24 17 15 16 18 16 7 3 11 13 24 25 23 25 14 12 22 29 14 25 25 23 10 15 14 29 24 27 20 18 15 7 7 4 5 8 8 14 15 10 10 14 14 14 14
22 17 18 20 18 16 2 10 9 16 17 18 29 20 8 21 14 25 27 28 29 29 17 19 18 14 27 20 23 16 13 13 5 1 2 5 7 3 9 8 11 16 16 13 13
9 11 15 14 17 11 3 11 11 13 18 20 20 16 22 23 17 17 15 28 27 30 20 8 4 21 22 19 20 24 6 6 1 8 5 5 6 5 8 9 12 13 12 10 9
5 3 7 7 13 2 4 7 13 17 21 21 21 21 22 20 18 18 12 12 27 27 31 18 5 9 20 22 25 13 10 4 7 6 5 2 7 8 7 14 14 14 13 14 14
2 3 7 16 2 2 2 7 7 16 19 19 19 18 17 19 21 18 14 11 13 19 31 28 6 11 16 18 23 15 9 7 9 5 5 6 6 8 13 12 13 15 13 11 12
3 3 1 9 2 2 9 17 17 18 17 17 19 20 12 16 8 12 12 21 19 19 26 23 20 4 8 8 12 15 15 10 6 6 9 5 5 6 9 11 15 14 13 12 10
3 4 1 2 4 5 9 9 12 10 12 11 13 19 10 15 15 15 26 17 27 20 24 25 12 20 10 8 13 22 19 17 10 5 7 9 7 4 9 12 10 13 13 14 12
2 3 3 3 4 7 6 9 16 11 14 12 9 14 9 9 16 18 19 26 22 10 17 4 25 12 22 23 11 23 22 20 17 12 13 8 7 11 12 11 18 16 16 15 13
2 3 4 8 8 9 8 8 15 17 12 11 12 16 16 12 12 21 16 14 12 12 18 10 12 21 19 19 22 17 26 21 19 12 9 10 10 9 8 9 13 19 19 18 16
4 7 3 5 6 5 3 8 13 12 13 11 12 10 9 5 3 12 12 17 20 20 17 8 5 13 22 18 10 18 22 24 20 10 13 14 7 5 6 11 14 20 20 20 18

GFSSW_925_spd_012.txt.gz
Wind_Speed
19 20 20 20 19 20 20 20 19 19 17 18 17 17 17 19 21 19 15 21 16 23 10 11 12 18 8 5 5 4 1 8 6 7 9 14 4 8 4 1 4 5 8 9 31
18 19 19 19 19 20 20 20 20 19 18 17 18 18 17 18 19 18 32 34 29 24 25 16 9 9 4 5 5 6 6 13 14 8 12 17 6 8 5 6 5 1 4 17 33
18 18 18 19 20 20 20 21 20 19 17 17 17 18 15 13 6 11 9 5 11 27 25 21 9 7 7 4 7 8 15 21 19 16 16 18 18 12 7 6 8 7 9 11 12
18 19 18 18 19 21 21 20 20 19 18 18 17 18 13 1 7 2 8 17 9 26 23 16 6 6 6 12 20 7 14 20 24 21 18 19 19 18 7 11 7 10 17 10 12
19 19 20 20 21 21 21 21 21 21 20 20 17 16 6 5 10 14 13 14 10 19 22 12 9 10 13 9 9 12 23 22 20 18 21 21 20 21 13 13 4 10 13 18 17
20 20 20 21 21 21 22 21 22 22 20 18 17 14 3 14 18 35 41 29 25 12 19 17 10 12 4 13 16 11 14 19 17 19 22 20 22 10 12 10 10 10 17 16 16
21 21 21 22 22 23 25 25 25 25 24 20 15 11 10 19 14 13 16 23 28 27 12 30 27 4 6 11 13 12 18 20 18 15 21 14 21 15 11 10 9 12 14 14 18
23 23 23 23 23 24 25 28 29 28 24 21 14 9 10 14 19 29 38 44 25 19 20 24 27 11 6 6 7 7 6 9 10 12 19 8 25 16 12 9 12 12 10 12 11
22 23 24 24 25 25 28 33 35 33 26 18 10 7 10 9 15 40 37 20 33 25 26 18 6 8 3 14 12 6 13 16 16 10 13 8 19 15 14 16 19 12 10 11 10
24 24 24 24 24 25 28 34 38 19 11 9 12 3 8 8 8 12 24 32 12 4 7 9 7 10 8 6 12 7 7 6 18 16 9 12 15 18 18 14 19 10 11 10 8
23 23 24 24 23 24 27 16 4 3 5 9 11 9 3 27 13 8 12 21 14 4 13 15 12 16 24 23 15 7 8 10 22 22 6 9 15 23 19 2 9 11 10 11 6
27 26 24 22 22 24 24 2 5 2 11 16 24 25 33 14 7 12 14 9 13 19 10 7 25 26 20 14 16 13 13 17 22 21 5 14 18 23 13 7 11 15 10 5 7
25 25 26 25 22 19 7 11 15 18 6 11 19 17 18 16 13 23 5 9 6 15 23 25 5 20 21 14 13 17 19 18 19 19 10 9 14 14 11 4 5 7 6 11 18
26 25 23 23 15 9 9 8 25 19 4 7 9 10 18 8 12 27 13 7 9 20 19 17 21 18 16 16 16 19 19 20 17 11 8 6 6 5 7 6 4 8 5 10 15
24 23 22 14 15 8 15 28 29 1 5 4 4 5 9 24 13 16 29 14 15 16 14 14 20 24 21 24 22 20 14 15 17 13 5 22 2 8 5 6 8 9 7 10 17
23 21 19 14 13 23 21 28 10 2 8 6 7 14 2 20 14 2 19 11 13 15 17 21 6 21 24 17 20 24 10 10 9 9 6 16 5 17 5 8 5 1 5 8 10
24 21 18 12 8 10 16 9 1 6 7 1 15 22 20 8 15 8 11 22 12 13 20 15 21 16 13 21 18 13 7 4 3 6 11 10 7 12 6 8 7 7 9 10 11
28 23 21 21 20 17 8 1 10 9 19 21 21 19 10 20 9 16 7 21 22 14 12 15 11 25 23 21 17 19 14 7 7 5 3 7 7 11 9 6 6 8 13 12 12
24 15 9 16 10 11 1 7 3 5 10 16 19 10 11 21 13 11 25 17 24 20 8 15 16 6 24 20 18 9 18 15 3 3 2 4 6 8 3 7 11 12 13 13 12
15 7 8 9 5 5 2 7 3 9 15 14 9 9 18 19 14 17 4 7 15 21 8 4 5 18 18 17 21 26 6 6 1 11 6 4 3 5 2 6 8 9 10 9 9
7 3 3 5 11 2 2 4 5 12 12 9 12 14 15 16 12 10 8 7 18 6 18 12 3 4 12 18 28 9 15 6 6 7 8 3 7 7 11 13 15 13 13 14 14
4 4 3 14 2 0 1 3 5 13 13 13 9 8 12 10 10 8 9 9 21 20 10 20 4 10 19 3 17 13 10 14 10 5 3 6 8 5 9 17 18 13 14 12 13
3 3 7 5 1 2 2 7 9 15 16 6 4 6 11 8 6 7 10 10 17 19 10 7 17 5 8 2 5 18 15 12 5 5 8 7 7 3 1 13 11 14 10 12 11
2 3 3 1 2 2 3 7 4 7 13 12 6 5 9 11 12 8 14 12 23 18 16 9 5 28 14 10 6 7 19 15 10 5 6 11 5 5 6 12 8 10 13 15 16
0 3 2 3 3 6 3 6 12 7 7 6 3 6 11 6 11 15 17 19 16 9 11 7 8 19 29 18 4 5 18 20 12 13 13 8 11 10 14 15 18 16 13 14 15
2 2 4 4 4 4 5 3 10 13 8 9 5 7 14 9 14 13 5 6 7 7 12 7 6 9 22 30 25 18 9 22 19 8 9 13 8 9 19 15 12 16 18 18 18
2 3 2 4 4 3 3 10 11 12 9 9 15 11 11 12 5 6 8 7 14 14 7 4 5 6 21 15 19 20 22 11 18 16 13 11 7 8 8 16 17 16 19 20 19